Location: Chevoux
(46.3801°N, 4.9476°E)
Time: 08:24:53
(UTC+00:00)

Envisat - Visible Passes

Search period start: 17 April 2021 00:00
Search period end: 27 April 2021 00:00
Orbit: 764 x 766 km, 98.1° (Epoch: 16 April)

Date Brightness Start Highest point End Pass type
(mag) Time Alt. Az. Time Alt. Az. Time Alt. Az.
17 Apr 6.1 03:50:01 10° ENE 03:52:13 13° E 03:54:26 10° ESE visible
22 Apr 5.8 04:03:00 10° NE 04:06:21 17° E 04:09:41 10° SE visible
25 Apr 6.0 03:52:11 10° ENE 03:54:46 14° E 03:57:19 10° ESE visible
